COSMOS 1275 DEB, 12675

Orbit data source: Space-Track

COSMOS 1275 DEB, 12675 is space debris in LEO originally from a launch on Thu, 04 Jun 1981 UTC launched from the Plesetsk Missile And Space Complex (PKMTR). Debris objects in space refer to the collection of defunct objects orbiting the Earth. Examples of debris include non-operational satellites, rocket bodies, and fragments generated from explosions, collisions, or faulty payload assembly.

Loading next visibility...
Identifier
12675, 1981-053AF
Orbit
LEO
Country
Flag of CISCIS
Related business
Manufacturer
Unknown
Mission
Spacecraft
Bus & Motor
Unknown
Mass
Unknown
Launch date (UTC)
1981-06-04 (44 years ago)
Launch vehicle
Unknown
Launch site
Plesetsk Missile And Space Complex (PKMTR)
Object type
Payload
Rocket body
Debris
Shape & HBR
Unknown shape, 0.3 m
Radar Cross Section
Medium (>0.1 m² and <1 m²)

Expand to show TLE details & history
Last TLE update: 14 hours ago

TLE from 14 hours ago
0 COSMOS 1275 DEB
1 12675U 81053AF  25310.79887808  .00001143  00000-0  10573-2 0  9991
2 12675  82.9358  68.8093 0065632 190.3083 338.2733 13.80673019217858
Epoch: 2025-11-06T19:10Z
TLE epoch observation values (Epoch: 2025-11-06T19:10:23.066Z)
Latitude
11.56396°
Longitude
-86.48417°
Altitude
918.936 km
Speed
7.416 km/s
True Right ascension
16h 29m 27s
True Declination
11° 29' 53"
Sunlit
Object was in daylight at epoch
Visualization orbit readout
Latitude
Unknown
Longitude
Unknown
Altitude
Unknown
Speed
Unknown
Apparent Right ascension
Unknown
Apparent Declination
Unknown
Sunlit
N/A
Visualization observer readout
Local Sidereal Time
04:58:50
Azimuth
Unknown
Elevation
Unknown
Doppler factor
Unknown
Orbital elements
Apogee altitude
1,006.794 km
Perigee altitude
910.489 km
Semi-major axis
7,336.779 km
Eccentricity
0.00656
Inclination
82.9358°
RAAN
68.8093°
Arg. of periapsis
190.3083°
True anomaly
337.99276°
Mean anomaly
338.2733°
Eccentric anomaly
338.13324°
Mean motion
3.4537 °/min
Orbital period
104.24 mins
BSTAR
0.0010573
Loading maneuver chart data...
Computing Atmospheric mass density...
Loading historical data...
Loading historical data...
Loading historical data...
Loading historical data...
Loading historical data...
Loading historical data...
Loading historical data...

Documentation

Showing up to 5 results
|